Weather History for PAEH - December, 2013

Change the Weather History Date:

Friday, December 6, 2013

  Actual Average Record
Temperature  
Mean Temperature 48 °F -  
Max Temperature 50 °F 26 °F 50 °F (2013)
Min Temperature 44 °F 18 °F -1 °F (2012)
Degree Days  
Heating Degree Days 17    
Moisture  
Dew Point 43 °F    
Average Humidity 86    
Maximum Humidity 95    
Minimum Humidity 82    
Precipitation  
Precipitation 0.06 in - - ()
Sea Level Pressure  
Sea Level Pressure 30.04 in    
Wind  
Wind Speed 36 mph (SE)    
Max Wind Speed 63 mph    
Max Gust Speed 69 mph    
Visibility 10 miles    
Events Rain    
Averages and records for this station are not official NWS values.
T = Trace of Precipitation, MM = Missing Value Source: NWS Daily Summary

Daily Weather History Graph

Daily Weather History Graph

Search for Another Location

Airport or City:

Trip Planner

Search our weather history database for the weather conditions in past years. The results will help you decide how hot, cold, wet, or windy it might be!

Date:

Astronomy

Dec. 06, 2013 Rise Set
Actual Time 10:22 AM AKST 4:56 PM AKST
Civil Twilight 9:30 AM AKST 5:48 PM AKST
Nautical Twilight 8:37 AM AKST 6:41 PM AKST
Astronomical Twilight 7:48 AM AKST 7:30 PM AKST
Moon 12:56 PM AKST (12/6) 10:27 PM AKST (12/6)
Length of Visible Light 8h 18m
Length of Day
6h 34m
Waxing Crescent, 20% of the Moon is Illuminated
Dec 6
Waxing Crescent
Dec 9
First Quarter
Dec 17
Full
Dec 25
Last Quarter
Jan 1
New

Hourly Weather History & Observations

Time (AKST) Temp. Windchill Dew Point Humidity Pressure Visibility Wind Dir Wind Speed Gust Speed Precip Events Conditions
12:55 AM 46.9 °F - 42.4 °F 84% 30.00 in 10.0 mi SE 20.7 mph 41.4 mph N/A   Mostly Cloudy
1:55 AM 47.1 °F - 43.0 °F 86% 29.99 in 10.0 mi SSE 35.7 mph 56.4 mph 0.00 in   Mostly Cloudy
2:55 AM 46.8 °F - 42.6 °F 85% 29.98 in 10.0 mi SE 42.6 mph 69.0 mph N/A   Mostly Cloudy
3:55 AM 47.7 °F - 43.5 °F 86% 29.95 in 10.0 mi SE 39.1 mph 67.9 mph N/A   Mostly Cloudy
4:55 AM 46.4 °F 35.7 °F 42.6 °F 87% 29.96 in 10.0 mi SE 41.4 mph 64.4 mph N/A   Mostly Cloudy
5:55 AM 47.1 °F - 44.1 °F 89% 29.98 in 10.0 mi SE 38.0 mph 59.8 mph N/A   Mostly Cloudy
6:55 AM 46.2 °F 35.9 °F 45.0 °F 95% 30.00 in 5.0 mi SE 38.0 mph 69.0 mph 0.06 in Rain Heavy Rain Showers
7:55 AM 46.4 °F 33.7 °F 44.6 °F 93% 29.99 in 10.0 mi SE 63.3 mph 69.0 mph N/A   Mostly Cloudy
8:55 AM 48.2 °F - 44.6 °F 87% 30.00 in 10.0 mi SE 44.9 mph 69.0 mph N/A   Mostly Cloudy
9:55 AM 50.0 °F - 45.1 °F 83% 30.02 in 10.0 mi SE 39.1 mph 61.0 mph N/A   Scattered Clouds
10:55 AM 49.1 °F - 44.4 °F 84% 30.03 in 10.0 mi SE 40.3 mph 55.2 mph N/A   Mostly Cloudy
11:55 AM 46.8 °F - 43.5 °F 88% 30.04 in 10.0 mi SE 38.0 mph 64.4 mph N/A   Mostly Cloudy
12:55 PM 48.4 °F - 44.2 °F 86% 30.05 in 10.0 mi SE 42.6 mph 66.7 mph N/A   Mostly Cloudy
1:55 PM 48.0 °F - 43.9 °F 86% 30.05 in 10.0 mi SE 38.0 mph 69.0 mph N/A   Scattered Clouds
2:55 PM 48.2 °F - 44.1 °F 86% 30.05 in 10.0 mi SE 43.7 mph 64.4 mph N/A   Scattered Clouds
3:55 PM 47.3 °F - 43.2 °F 86% 30.05 in 10.0 mi SE 42.6 mph 63.3 mph N/A   Scattered Clouds
4:55 PM 46.8 °F - 43.2 °F 87% 30.06 in 10.0 mi SE 43.7 mph 56.4 mph N/A   Mostly Cloudy
5:55 PM 48.0 °F - 43.9 °F 86% 30.07 in 10.0 mi SSE 42.6 mph 61.0 mph N/A   Scattered Clouds
6:55 PM 47.8 °F - 43.2 °F 84% 30.09 in 10.0 mi SE 32.2 mph 51.8 mph N/A   Scattered Clouds
7:55 PM 48.6 °F - 43.2 °F 82% 30.10 in 10.0 mi SE 23.0 mph 46.0 mph N/A   Mostly Cloudy
8:55 PM 46.6 °F - 41.5 °F 83% 30.10 in 10.0 mi ESE 27.6 mph 44.9 mph N/A   Mostly Cloudy
9:55 PM 46.2 °F 37.3 °F 41.7 °F 84% 30.11 in 10.0 mi SE 27.6 mph 52.9 mph N/A   Mostly Cloudy
10:55 PM 46.0 °F 36.5 °F 41.2 °F 83% 30.12 in 10.0 mi SE 31.1 mph 42.6 mph N/A   Mostly Cloudy
11:55 PM 44.4 °F 34.0 °F 39.7 °F 84% 30.12 in 10.0 mi ESE 33.4 mph 42.6 mph N/A   Mostly Cloudy